TimeAKST,TemperatureF,Dew PointF,Humidity,Sea Level PressureIn,VisibilityMPH,Wind Direction,Wind SpeedMPH,Gust SpeedMPH,PrecipitationIn,Events,Conditions,WindDirDegrees,DateUTC
12:01 AM,-4.0,-9.0,79,30.15,10.0,Variable,6.9,-,N/A,,Clear,0,2013-11-28 09:01:00
1:01 AM,-8.0,-11.9,83,30.14,10.0,Calm,Calm,-,N/A,,Clear,0,2013-11-28 10:01:00
2:01 AM,-7.1,-11.0,83,30.15,10.0,Calm,Calm,-,N/A,,Partly Cloudy,0,2013-11-28 11:01:00
3:01 AM,-6.0,-9.9,83,30.15,10.0,East,3.5,-,N/A,,Clear,100,2013-11-28 12:01:00
4:01 AM,-6.0,-9.0,87,30.15,10.0,Calm,Calm,-,N/A,,Clear,0,2013-11-28 13:01:00
5:01 AM,-6.0,-11.0,79,30.15,10.0,Calm,Calm,-,N/A,,Clear,0,2013-11-28 14:01:00
6:01 AM,-7.1,-11.0,83,30.14,10.0,Calm,Calm,-,N/A,,Clear,0,2013-11-28 15:01:00
7:01 AM,-9.0,-14.1,79,30.16,10.0,Calm,Calm,-,N/A,,Clear,0,2013-11-28 16:01:00
8:01 AM,-9.9,-15.0,78,30.16,10.0,Calm,Calm,-,N/A,,Clear,0,2013-11-28 17:01:00
9:01 AM,-9.9,-15.0,78,30.16,10.0,Calm,Calm,-,N/A,,Clear,0,2013-11-28 18:01:00
10:01 AM,-11.0,-16.1,78,30.17,10.0,Variable,3.5,-,N/A,,Clear,0,2013-11-28 19:01:00
11:01 AM,-11.9,-17.0,78,30.18,7.0,Calm,Calm,-,N/A,,Clear,0,2013-11-28 20:01:00
11:26 AM,-11.2,-16.6,77,30.04,2.5,Calm,Calm,-,0.00,Snow,Light Snow,0,2013-11-28 20:26:00
11:33 AM,-11.2,-16.6,77,30.04,9.0,Calm,Calm,-,0.00,,Clear,0,2013-11-28 20:33:00
12:01 PM,-9.9,-14.1,82,30.19,10.0,ENE,3.5,-,0.00,,Clear,60,2013-11-28 21:01:00
1:01 PM,-7.1,-11.0,83,30.19,10.0,Calm,Calm,-,N/A,,Clear,0,2013-11-28 22:01:00
2:01 PM,-6.0,-9.0,87,30.20,10.0,Calm,Calm,-,N/A,,Clear,0,2013-11-28 23:01:00
3:01 PM,-9.9,-15.0,78,30.22,10.0,NW,3.5,-,N/A,,Clear,320,2013-11-29 00:01:00
4:01 PM,-11.0,-15.0,83,30.23,10.0,North,9.2,-,N/A,,Clear,350,2013-11-29 01:01:00
5:01 PM,-11.9,-17.0,78,30.22,10.0,Calm,Calm,-,N/A,,Clear,0,2013-11-29 02:01:00
6:01 PM,-9.9,-14.1,82,30.22,10.0,WNW,3.5,-,N/A,,Clear,300,2013-11-29 03:01:00
7:01 PM,-14.1,-18.9,79,30.25,10.0,Calm,Calm,-,N/A,,Clear,0,2013-11-29 04:01:00
8:01 PM,-11.0,-15.0,83,30.25,10.0,North,3.5,-,N/A,,Scattered Clouds,350,2013-11-29 05:01:00
9:01 PM,-13.0,-18.0,78,30.27,10.0,NW,5.8,-,N/A,,Partly Cloudy,310,2013-11-29 06:01:00
10:01 PM,-11.0,-15.0,83,30.27,10.0,ENE,3.5,-,N/A,,Clear,60,2013-11-29 07:01:00
11:01 PM,-11.0,-16.1,78,30.27,10.0,NNW,5.8,-,N/A,,Clear,340,2013-11-29 08:01:00